Regional Weather Roundup
Issued by NWS

Home | Current Version | Previous Version | Text Only | Print | Product List | Glossary On
Versions: 1 2 3 4 5 6 7 8 9 10 11 12 13 14 15 16 17 18 19 20 21 22 23 24 25 26 27 28 29 30 31 32 33 34 35 36 37 38 39 40 41 42 43 44 45 46 47 48 49 50
000
ASUS43 KMPX 272310
RWRMN
WEATHER ROUNDUP FOR MINNESOTA
NATIONAL WEATHER SERVICE TWIN CITIES/CHANHASSEN MN
600 PM CDT SAT MAY 27 2017


NOTE: "FAIR" INDICATES FEW OR NO CLOUDS BELOW 12,000 FEET WITH NO
SIGNIFICANT WEATHER AND/OR OBSTRUCTIONS TO VISIBILITY. N/A MEANS
CURRENT SKY AND/OR WEATHER CONDITIONS ARE NOT AVAILABLE.

MNZ060>063-068>070-280000-
   Twin Cities Metro

CITY           SKY/WX    TMP DP  RH WIND       PRES   REMARKS
TWIN CITIES    PTSUNNY   70  49  47 SW9       29.86S
ST PAUL        MOSUNNY   68  50  52 SW12      29.86S
CRYSTAL        CLOUDY    71  47  42 SW10      29.84S
BLAINE         MOSUNNY   72  48  43 SW8       29.84S
LAKEVILLE      CLOUDY    68  48  49 W5        29.87R
EDEN PRAIRIE   MOSUNNY   70  48  45 SW8       29.85S
SOUTH ST PAUL  CLOUDY    70  49  46 S6        29.85S
LAKE ELMO      FAIR      68  54  60 S8        29.86S
$$
MNZ001>005-007-008-013>017-022>024-027-028-280000-
   Northwest Minnesota

CITY           SKY/WX    TMP DP  RH WIND       PRES   REMARKS
BEMIDJI        MOSUNNY   74  37  26 SW8G21    29.74F
HALLOCK        PTSUNNY   66  48  52 SE7       29.70F
ROSEAU         CLOUDY    72  41  33 SW7       29.70S
WARROAD        CLOUDY    72  43  35 W9        29.70S
THIEF RVR FALL MOSUNNY   70  42  36 SW14      29.72F
CROOKSTON      MOSUNNY   70  43  37 SW18G26   29.72F
FOSSTON        MOSUNNY   70  36  28 NW7       29.74F
DETROIT LAKES  MOSUNNY   70  41  35 S7        29.77F
MOORHEAD       SUNNY     77  32  19 W17       29.74S
PARK RAPIDS    CLOUDY    71  34  25 W22G28    29.77S
MAHNOMEN       FAIR      74  35  24 W18       29.73F
$$
MNZ006-009>011-018-025>026-280000-
   North Central Minnesota

CITY           SKY/WX    TMP DP  RH WIND       PRES   REMARKS
BAUDETTE       CLOUDY    70  39  32 SW10      29.71F
FLAG ISLAND    CLOUDY    66  45  45 CALM      29.69S
INTL FALLS     CLOUDY    73  40  30 W7        29.73F
WASKISH        PTSUNNY   68  50  52 W9        29.75R
BIG FORK       MOSUNNY   73  37  27 SW3       29.74F
LONGVILLE      CLOUDY    68  45  42 S8        29.77F
GRAND RAPIDS   CLOUDY    71  42  35 SW10      29.79F
CRANE LAKE     MOSUNNY   70  36  28 SW6       29.75F
ORR            MOSUNNY   70  32  24 SW6       29.71F
COOK           SUNNY     73  37  27 SW10      29.75F
WALKER         MOCLDY    69  40  35 W13       29.77F
$$
MNZ012-019>021-037-280000-
   Northeast Minnesota

CITY           SKY/WX    TMP DP  RH WIND       PRES   REMARKS
DULUTH         MOSUNNY   74  40  29 NW16      29.78F
ELY            MOSUNNY   72  36  26 W6        29.75F
HIBBING        MOSUNNY   72  39  30 W10       29.76F
EVELETH        SUNNY     73  28  18 W10G22    29.78F
DULUTH HARBOR  PTSUNNY   73  45  35 SW10      29.76F
TWO HARBORS    CLOUDY    73  50  43 SW10      29.75F
SILVER BAY     MOSUNNY   72  41  33 S13       29.75F
GRAND MARAIS     N/A     50  42  74 SW6       29.77F
G MARAIS ARPRT SUNNY     64  37  36 S8        29.81F
$$
MNZ029>031-032-039>041-046>048-054>057-064-280000-
   West Central Minnesota

CITY           SKY/WX    TMP DP  RH WIND       PRES   REMARKS
FERGUS FALLS   PTSUNNY   66  50  55 SW8       29.77R
WHEATON        PTSUNNY   73  37  27 SW16G23   29.81F
MORRIS         CLOUDY    73  43  33 SW12      29.81F
ALEXANDRIA     CLOUDY    72  40  31 SW12      29.83F
ELBOW LAKE     PTSUNNY   67  46  45 S7        29.81S
WADENA         SUNNY     72  41  33 SW10G17   29.78F
GLENWOOD       CLOUDY    72  43  35 SW13      29.84F
APPLETON       CLOUDY    73  36  25 SW10G16   29.82F
BENSON         CLOUDY    72  45  37 W6        29.84F
ORTONVILLE     MOSUNNY   73  37  27 SW6G17    29.83S
MADISON        CLOUDY    73  43  33 SW12      29.84S
WILLMAR        FAIR      72  46  40 NW9       29.86S
$$
MNZ033>034-036-042>043-049>051-058-059-280000-
   Central Minnesota

CITY           SKY/WX    TMP DP  RH WIND       PRES   REMARKS
ST CLOUD       CLOUDY    69  45  41 W10       29.83F
SAUK CENTRE    CLOUDY    70  44  38 SW12G17   29.83F
PAYNESVILLE    CLOUDY    69  40  34 W6        29.84F
AITKIN         SUNNY     72  43  35 SW8       29.78F
PINE RIVER     CLOUDY    72  46  40 S12       29.82F
BRAINERD       MOSUNNY   70  41  34 SW16      29.80F
STAPLES        CLOUDY    72  39  30 SW12G20   29.79F
LONG PRAIRIE   FAIR      70  43  37 S12G20    29.83S
LITTLE FALLS   CLOUDY    70  39  32 SW8       29.83F
LITCHFIELD     CLOUDY    72  45  37 CALM      29.85S
BUFFALO        PTSUNNY   70  43  37 SW5       29.85S
MAPLE LAKE     PTSUNNY   74  47  38 S5        29.85S
HUTCHINSON     MOSUNNY   73  42  32 SW6       29.86S
$$
MNZ037-044-045-052-053-280000-
   East Central Minnesota

CITY           SKY/WX    TMP DP  RH WIND       PRES   REMARKS
PRINCETON      MOSUNNY   73  45  35 S6        29.83S
MORA           MOSUNNY   68  43  40 SW5       29.84S
CAMBRIDGE      CLOUDY    73  52  46 SW6       29.82S
RUSH CITY      CLOUDY    72  45  37 SW3       29.83S
MOOSE LAKE     CLOUDY    73  43  33 W9        29.79S
HINCKLEY       FAIR      72  46  40 SW8       29.81F
CLOQUET        MOSUNNY   72  37  28 SW8G16    29.79F
MCGREGOR       CLOUDY    72  43  35 SW9G18    29.80F
$$
MNZ071>073-080-081-089-090-097-098-280000-
   Southwest Minnesota

CITY           SKY/WX    TMP DP  RH WIND       PRES   REMARKS
MONTEVIDEO     PTSUNNY   72  45  37 W5        29.85S
CANBY          CLOUDY    70  43  38 CALM      29.87S
MARSHALL       CLOUDY    69  47  45 W13       29.87S
REDWOOD FALLS  SUNNY     72  38  29 CALM      29.85F
OLIVIA         MOSUNNY   72  43  35 W6        29.84F
PIPESTONE      MOSUNNY   66  43  42 W7        29.90S
WINDOM         MOSUNNY   70  45  40 SW8       29.89S
WORTHINGTON    PTSUNNY   67  47  48 SW9       29.91R
JACKSON        SUNNY     68  45  42 CALM      29.90S
TRACY          CLOUDY    71  44  38 W3        29.88S
SLAYTON        MOSUNNY   66  50  56 SW14      29.91R
$$
MNZ065>067-074>077-082>085-091>093-280000-
   South Central Minnesota

CITY           SKY/WX    TMP DP  RH WIND       PRES   REMARKS
MANKATO          N/A     70  46  42 W8        29.88S
NEW ULM        MOSUNNY   72  45  37 SW7       29.87S
ST JAMES       SUNNY     70  46  43 S5        29.88S
FAIRMONT       SUNNY     69  47  45 NW5       29.90R
GLENCOE        MOSUNNY   74  42  32 CALM      29.85S
FARIBAULT      CLOUDY    70  46  43 W3        29.88S
OWATONNA       MOSUNNY   68  41  37 CALM      29.89R
WASECA         MOSUNNY   70  41  35 W3        29.90R
ALBERT LEA     CLOUDY    70  45  40 CALM      29.89R
$$
MNZ078>079-086>088-094>096-280000-
   Southeast Minnesota

CITY           SKY/WX    TMP DP  RH WIND       PRES   REMARKS
ROCHESTER      LGT RAIN  64  48  56 CALM      29.90R
RED WING       PTSUNNY   70  41  35 W3        29.86S
STANTON        CLOUDY    69  45  41 W3        29.86S
DODGE CENTER   CLOUDY    64  46  52 CALM      29.90R
WINONA         DRIZZLE   70  52  52 CALM      29.89R
AUSTIN         CLOUDY    64  48  55 CALM      29.89S
PRESTON        LGT RAIN  63  50  63 NW3       29.91R
$$
ABBREVIATIONS USED IN REMARKS
   TC - TEMPERATURES IN CELSIUS
  WCI - WIND CHILL INDEX
   HX - HEAT INDEX
  VSB - VISIBILITY
$$




USA.gov is the U.S. government's official web portal to all federal, state and local government web resources and services.